星链-35648(STARLINK-35648)

导读

STARLINK-35648是美国SpaceX公司星链星座的量产低轨通信卫星,于2025年11月15日发射入轨,归入星链全球互联网星座组网。卫星采用平板设计,搭载Ku/Ka波段通信载荷与光学星间链路,以氪工质霍尔推进实现轨道维持与末期离轨,设计寿命约5-7年。作为星链星座组成部分,它旨在为全球提供普惠宽带互联网接入服务,目前已在轨运行近四个月,参与星座组网运营。

基本信息
目录编号:
66482
目录名称:
STARLINK-35648
国际标识:
2025-262AC
轨道中心:
EARTH
卫星名称:
星链-35648
卫星全名:
星链-35648(STARLINK-35648)
卫星状态:
在轨 (已飞行293 天)
发射日期:
2025-11-15 UTC
国别 :
美国 (US)
星等 :
--
轨道信息
数据来源 国际轨道数据
星历时间: 2026-09-04T02:36:06+0800
11小时前
查看轨道信息
半长轴: 6861.226km
偏心率: 0.0001647
轨道倾角: 43.002°
近地点辐角 277.025°
升交点赤经 10.310°
平近点角 83.042°
近地点: 481.958km
远地点: 484.22km
周期: 94.268分钟
每日圈数: 15.275669
详细信息
固有亮度:
5
最大亮度:
2.5
卫星平台:
Starlink V1.0
覆盖范围:
全球
运营商:
太空探索技术公司
运营商所在国:
美国
制造商(研发单位):
太空探索技术公司
制造商所在国:
美国
使用方式:
暂无
卫星简介
Starlink 计划是 SpaceX 推出的全球卫星互联网项目,通过发射低轨道卫星,为全球尤其是偏远地区提供高速、低延迟的互联网服务。自 2019 年起,Starlink 已部署数千颗卫星,旨在缩小全球数字鸿沟,推动互联网普及。该项目还为军事、航空等行业提供通信支持,带来广泛经济效益。
2D轨道图
3D轨道图
轨道高度分析图
轨道倾角分析图
轨道综合分析图
查看轨道综合分析图
交会数据列表
事件ID 空间交会对象 最接近时刻(TCA) 交会距离 交会风险概率(CRP) 交会风险指数(CRI) 操作
CDM_260904-040906-403606-648221
2026-09-04T
04:09:11+0000
0.381 km
远距离
1.787674E-4 高风险 0.8
CDM_260905-030306-185606-648221
2026-09-05T
03:03:54+0000
0.404 km
远距离
1.784857E-4 高风险 0.8
CDM_260905-043305-777406-648221
2026-09-05T
04:33:18+0000
0.859 km
远距离
2.914427E-5 中风险 0.64
CDM_260904-223005-993906-648221
2026-09-04T
22:30:45+0000
0.747 km
远距离
2.529727E-5 中风险 0.63
CDM_260905-060705-777406-648221
2026-09-05T
06:07:27+0000
0.999 km
远距离
1.741796E-5 中风险 0.6
CDM_260905-022605-993906-648221
2026-09-05T
02:26:07+0000
0.904 km
远距离
1.335378E-5 中风险 0.58
CDM_260905-012906-185606-648221
2026-09-05T
01:29:45+0000
2.017 km
极远距离
1.445309E-6 低风险 0.38
CDM_260827-182706-368106-648222
2026-08-27T
18:27:42+0000
2.612 km
极远距离
1.108172E-6 低风险 0.36
CDM_260905-074105-777406-648221
2026-09-05T
07:41:36+0000
2.684 km
极远距离
1.082456E-6 低风险 0.36
CDM_260904-054306-403606-648221
2026-09-04T
05:43:25+0000
2.300 km
极远距离
9.533228E-7 极低风险 0.35